カタログに戻る

FENGYUN 1C DEB

運用中SSO
NORAD 30507·DEBRIS·🇨🇳 China

打ち上げ May 10, 1999 から Taiyuan Satellite Launch Center

Loading…

次のパス (今後24時間)

TLE

最新Source: Space-Track

元期: Sep 14, 2026, 03:17 UTC

1 30507U 99025AHV 26257.13713030  .00001685  00000-0  83805-3 0  9997
2 30507  98.9938 328.5113 0128288 118.0822 273.1279 14.14177062  3789

AllMySatでFENGYUN 1C DEBをリアルタイム追跡

Download on the App Store